sat.trackr.live / text

‹ back to catalog

IRIDIUM 128

NORAD 42811 · 2017-039J

PAYLOAD ACTIVE UNKNOWN

§ Identity

Operator
Country
US
Launch date
2017-06-25
Launch site
AFWTR
Launch vehicle
Mass (kg)
RCS (m²)

Purposes: comms

External: N2YO · Heavens-Above · Gunter

§ Orbital elements

Epoch: 2026-09-19T22:54:54.749376Z

Period
100.40 min
Inclination
86.4017°
Eccentricity
0.0002009
Mean motion
14.34217037 rev/d
Perigee alt
776.2 km
Apogee alt
779.1 km
Semi-major
7,155.8 km
B*
-5.7321e-5
RAAN
345.5516°
Arg perigee
92.9055°
Mean anomaly
267.2371°
Rev number
48,356

§ Raw data

IRIDIUM 1281 42811U 17039J   26262.95480034 -.00000141  00000+0 -57321-4 0  99962 42811  86.4017 345.5516 0002009  92.9055 267.2371 14.34217037483560

JSON: /api/v1/satellites/42811 · /tle

For live sub-satellite position, see the globe view (requires WebGL).

§ Visibility from observer

Set your observer location to see the next 7 days of passes ≥ 10°. The values pass through the URL so the page stays shareable.

No JS? Fill the form by hand. The geolocation button needs JavaScript.